[[{"header":{"parameterUnit":"m.s-1","parameterCategory":2,"la1":30.2991,"la2":30.254,"lo1":-89.0895,"lo2":-89.0444,"dy":0.0017,"dx":0.0017,"nx":28,"ny":28,"refTime":"2024-03-29T03:00:00:Z","depth":"0","parameterNumber":2,"parameterNumberName":"U-component_of_CURRENTS"},"data":[0,0,0,0,0,0,0,0,0,0,0,0,0,0,0,0,0,0,0,0,0,0,0,0,0,0,0,0,0,0,0,0,0,0,0,0,0,0,0,0,0,0,0,0,0,0,0,0,0,0,0,0,0,0,0,0,0,0,0.288,0.288,0,0.284,0.2839,0.2838,0.2794,0.2794,0.2793,0.2793,0.274,0.2739,0.2738,0,0,0,0,0,0,0,0,0,0,0,0,0,0.2935,0.2934,0.288,0.288,0.288,0.284,0.2839,0.2838,0.2794,0.2794,0.2793,0.2793,0.274,0.2739,0.2737,0,0,0,0,0,0,0,0,0,0,0,0,0,0.2901,0.2933,0.288,0.2856,0.2853,0.284,0.2839,0.2838,0.2794,0.2794,0.2793,0.2793,0.2741,0.2739,0.2737,0.2737,0,0,0.2732,0.2731,0,0,0,0,0,0,0,0,0.2903,0.2899,0.286,0.2857,0.2855,0.2825,0.2839,0.2805,0.2794,0.2813,0.2793,0.2792,0.277,0.2765,0.2754,0.2734,0.2732,0.2732,0.2731,0.273,0.273,0,0,0,0,0,0,0,0.2906,0.29,0.2861,0.2859,0.2857,0.2852,0.2846,0.2832,0.2792,0.2811,0.2809,0.281,0.2768,0.2756,0.2753,0.2731,0.2732,0.2731,0.273,0.2729,0.2768,0.277,0,0,0,0,0,0,0.2917,0.2903,0.2862,0.286,0.2882,0.2852,0.2845,0.2832,0.2792,0.2787,0.281,0.2808,0.2759,0.2755,0.2751,0.2804,0.273,0.2729,0.2728,0.2766,0.2768,0.2771,0,0,0,0,0,0,0.2918,0.2913,0.2864,0.2884,0.2878,0.2852,0.2837,0.2831,0.2823,0.2792,0.2785,0.2809,0.2758,0.2753,0.2751,0.2799,0.2728,0.2726,0.2764,0.2767,0.277,0.2874,0,0,0,0,0,0,0.2919,0.2913,0.2909,0.2884,0.2877,0.2858,0.2838,0.2831,0.2826,0.2823,0.2789,0.2783,0.2758,0.2754,0.275,0.2795,0.2725,0.2761,0.2765,0.2769,0.2868,0.288,0.289,0,0,0,0,0,0.2921,0.2914,0.2909,0.2905,0.2871,0.2859,0.2854,0.2832,0.2827,0.2823,0.2811,0.2784,0.2776,0.2754,0.2748,0.2795,0.2759,0.2764,0.2768,0.2863,0.2878,0.289,0,0,0,0,0,0,0.2932,0.2908,0.2902,0.2887,0.2878,0.2853,0.285,0.284,0.2827,0.2826,0.2797,0.279,0.2812,0.2787,0.2764,0.2819,0.2769,0.2772,0.2843,0.2856,0.2867,0.292,0.2724,0,0,0,0,0,0.2936,0.2923,0.2907,0.2896,0.2895,0.2877,0.2871,0.2859,0.2845,0.2838,0.2817,0.2811,0.2827,0.2826,0.2819,0.284,0.2882,0.2871,0.2883,0.2893,0.2933,0.305,0.3078,0.2786,0.2786,0.2786,0,0,0.2935,0.2924,0.2915,0.2899,0.2889,0.2896,0.287,0.2865,0.2884,0.2836,0.2848,0.2842,0.284,0.287,0.2878,0.2854,0.2994,0.2898,0.2907,0.2943,0.3058,0.3087,0.3113,0.2789,0.2788,0.2788,0,0,0.2934,0.2923,0.2915,0.2916,0.2912,0.2909,0.2913,0.2896,0.2901,0.2912,0.2904,0.2943,0.2918,0.2959,0.2972,0.3047,0.3048,0.3025,0.3127,0.324,0.3267,0.329,0.3367,0.3397,0.3033,0.3034,0.3034,0,0.2937,0.2925,0.2913,0.2918,0.293,0.2922,0.2935,0.2945,0.2931,0.2966,0.2927,0.2997,0.2982,0.3088,0.3111,0.308,0.3122,0.3073,0.326,0.3283,0.3306,0.338,0.3411,0.3039,0.3039,0.3038,0.3037,0,0.2931,0.2934,0.2935,0.2942,0.2958,0.2963,0.2987,0.3013,0.3023,0.3043,0.3129,0.3135,0.3193,0.3192,0.317,0.3325,0.3296,0.3259,0.3231,0.3342,0.3411,0.3442,0.3047,0.3045,0.3044,0.3042,0,0,0.2895,0.2924,0.2922,0.2949,0.2973,0.2987,0.305,0.3112,0.3188,0.3198,0.3307,0.3355,0.3379,0.3401,0.34,0.3492,0.3671,0.3444,0.3447,0.3532,0.3905,0.3779,0.3799,0.3662,0.3668,0.3673,0.3886,0,0.2891,0.2916,0.2933,0.2978,0.3,0.3048,0.3116,0.3185,0.3246,0.3345,0.3418,0.3501,0.3454,0.3502,0.3596,0.3646,0.3759,0.3616,0.3776,0.3781,0.3665,0.3834,0.3621,0.3784,0.3916,0.3921,0.3925,0,0.2866,0.2898,0.2936,0.3028,0.3045,0.3083,0.3225,0.3285,0.3438,0.3496,0.3618,0.3661,0.3816,0.3749,0.3957,0.3861,0.3914,0.3948,0.3956,0.3833,0.3714,0.3696,0.3835,0.3753,0.3972,0.3968,0.3965,0,0.2843,0.2898,0.2938,0.296,0.306,0.3118,0.3186,0.3333,0.3438,0.361,0.3712,0.3866,0.396,0.4073,0.4129,0.4067,0.4338,0.4257,0.4209,0.4199,0.405,0.4015,0.4142,0.4454,0.4453,0.4453,0.4452,0,0.2827,0.2857,0.2934,0.2958,0.3071,0.3124,0.3273,0.3375,0.3547,0.3688,0.3794,0.3932,0.4049,0.4188,0.4228,0.4317,0.4432,0.4288,0.4275,0.4073,0.4039,0.3981,0.3922,0.4461,0.4459,0.4457,0.4456,0,0.2809,0.2829,0.2908,0.3019,0.3061,0.3152,0.3334,0.3448,0.3592,0.3789,0.3855,0.4038,0.4188,0.4294,0.4469,0.4434,0.4404,0.4534,0.4264,0.4215,0.4026,0.3978,0.3963,0.3854,0.4527,0.4525,0.4524,0,0.2804,0.2835,0.2971,0.3045,0.3101,0.3233,0.3333,0.3474,0.3587,0.3839,0.3926,0.4127,0.4234,0.4432,0.441,0.449,0.4386,0.4338,0.4185,0.4047,0.3988,0.3829,0.3726,0.4034,0.4028,0.4024,0.4021,0,0.2861,0.2906,0.3001,0.3129,0.3228,0.3335,0.3461,0.354,0.3694,0.383,0.3968,0.407,0.4218,0.4169,0.4256,0.427,0.4098,0.425,0.421,0.372,0.346,0.3333,0.3844,0.3984,0.3987,0.399,0.3992,0.3994,0.295,0.3027,0.3138,0.3246,0.3347,0.3388,0.3407,0.3506,0.3614,0.3696,0.3858,0.389,0.3932,0.3987,0.3985,0.384,0.3845,0.3721,0.3712,0.3594,0.3369,0.3777,0.382,0.3823,0.3825,0.3827,0.3829,0,0.3065,0.3123,0.3242,0.3335,0.3379,0.3409,0.3456,0.3397,0.3397,0.3509,0.3552,0.3541,0.3505,0.3541,0.3467,0.3341,0.3183,0.3266,0.3027,0.2983,0.3458,0.3314,0.3123,0.3123,0.3123,0.3123,0.3123,0.3123,0.3143,0.3244,0.3253,0.3311,0.3341,0.3267,0.3218,0.3132,0.3131,0.3057,0.3022,0.3059,0.3216,0.3209,0.3094,0.3014,0.2822,0.2642,0.2709,0.3069,0.311,0.315,0.3006,0.2753,0.2752,0.208,0.2075,0.2071]},{"header":{"parameterUnit":"m.s-1","parameterCategory":2,"la1":30.2991,"la2":30.254,"lo1":-89.0895,"lo2":-89.0444,"dy":0.0017,"dx":0.0017,"nx":28,"ny":28,"refTime":"2024-03-29T03:00:00:Z","depth":"0","parameterNumber":3,"parameterNumberName":"V-component_of_CURRENTS"},"data":[0,0,0,0,0,0,0,0,0,0,0,0,0,0,0,0,0,0,0,0,0,0,0,0,0,0,0,0,0,0,0,0,0,0,0,0,0,0,0,0,0,0,0,0,0,0,0,0,0,0,0,0,0,0,0,0,0,0,0.0088,0.0088,0,0.0076,0.0076,0.0076,0.0055,0.0055,0.0055,0.0054,0.0017,0.0016,0.0015,0,0,0,0,0,0,0,0,0,0,0,0,0,0.0046,0.0047,0.0087,0.0088,0.0088,0.0076,0.0076,0.0076,0.0055,0.0055,0.0054,0.0054,0.0017,0.0016,0.0015,0,0,0,0,0,0,0,0,0,0,0,0,0,0.0051,0.0047,0.0087,0.0077,0.0076,0.0077,0.0076,0.0076,0.0055,0.0055,0.0054,0.0054,0.0018,0.0016,0.0015,0.0015,0,0,0.0012,0.0011,0,0,0,0,0,0,0,0,0.005,0.0052,0.0079,0.0078,0.0077,0.0068,0.0048,0.0055,0.0055,0.0061,0.0054,0.0054,0.0033,0.0031,0.0027,0.0014,0.0012,0.0012,0.0011,0.001,0.001,0,0,0,0,0,0,0,0.005,0.0052,0.0081,0.0079,0.0078,0.0058,0.0058,0.0049,0.0047,0.0061,0.006,0.0061,0.0032,0.0028,0.0026,0.0011,0.0012,0.0011,0.001,0.0009,0.0002,0.0003,0,0,0,0,0,0,0.0058,0.0052,0.0082,0.0081,0.0065,0.0059,0.006,0.007,0.0048,0.0045,0.0062,0.0061,0.0031,0.0028,0.0025,0.0051,0.001,0.0009,0.0009,0.0002,0.0002,0.0003,0,0,0,0,0,0,0.0058,0.0061,0.0082,0.0067,0.0069,0.0061,0.0072,0.007,0.0069,0.005,0.0046,0.0064,0.003,0.0026,0.0022,0.0049,0.0009,0.0008,0.0001,0.0002,0.0003,0.0087,0,0,0,0,0,0,0.0057,0.0061,0.0069,0.0068,0.007,0.0091,0.0073,0.007,0.0072,0.007,0.005,0.0046,0.003,0.0024,0.0021,0.0046,0.0007,0.0001,0.0002,0.0002,0.0083,0.009,0.0096,0,0,0,0,0,0.0055,0.0074,0.007,0.0073,0.0082,0.0092,0.0091,0.0082,0.0072,0.0079,0.0063,0.0047,0.0028,0.0024,0.002,0.0046,0.0,0.0001,0.0002,0.0081,0.0089,0.0096,0,0,0,0,0,0,0.0059,0.0074,0.0069,0.0091,0.0094,0.0089,0.0095,0.0087,0.008,0.0077,0.0054,0.0049,0.0056,0.0034,0.003,0.0044,0.0011,0.0012,0.0072,0.008,0.0086,0.0134,0.0006,0,0,0,0,0,0.0065,0.0084,0.0088,0.0105,0.0108,0.0101,0.0103,0.0099,0.0093,0.009,0.0077,0.0062,0.0057,0.0055,0.0044,0.0052,0.0052,0.0063,0.007,0.0076,0.0111,0.0128,0.0141,0.0007,0.0007,0.0007,0,0,0.007,0.0081,0.0091,0.0107,0.0106,0.0129,0.0101,0.0111,0.0134,0.0087,0.0108,0.0084,0.0063,0.0075,0.0076,0.0061,0.0109,0.0077,0.0083,0.0116,0.0131,0.0144,0.0156,0.0007,0.0007,0.0007,0,0,0.0099,0.0101,0.0129,0.0137,0.0147,0.0147,0.0154,0.0155,0.0158,0.017,0.0145,0.0147,0.0127,0.0132,0.0128,0.0163,0.0142,0.0144,0.0222,0.0237,0.0249,0.026,0.0265,0.0275,0.0149,0.0149,0.0149,0,0.0103,0.0145,0.0137,0.0166,0.0186,0.0162,0.0201,0.0201,0.0201,0.0223,0.0187,0.02,0.0167,0.0213,0.0215,0.0184,0.018,0.0196,0.0249,0.026,0.0269,0.0272,0.0282,0.0153,0.0153,0.0153,0.0152,0,0.0157,0.0188,0.0205,0.0241,0.0257,0.0283,0.029,0.0306,0.0301,0.0309,0.0346,0.031,0.0329,0.0303,0.0267,0.0322,0.0292,0.0255,0.0237,0.0289,0.0286,0.0296,0.0159,0.0158,0.0157,0.0156,0,0,0.0178,0.0234,0.0241,0.0282,0.0303,0.0332,0.037,0.0417,0.0471,0.0453,0.0531,0.0498,0.0487,0.0482,0.0441,0.0443,0.048,0.0379,0.0378,0.04,0.0511,0.0425,0.0427,0.0449,0.0451,0.0453,0.0478,0,0.0226,0.0307,0.0321,0.0403,0.0449,0.0453,0.0504,0.0539,0.0557,0.0619,0.0602,0.0644,0.0553,0.0569,0.056,0.0507,0.0512,0.0477,0.0446,0.0446,0.0376,0.0438,0.0408,0.0423,0.0487,0.0489,0.049,0,0.0281,0.0334,0.0422,0.0515,0.0537,0.058,0.0677,0.0721,0.0784,0.0802,0.0839,0.0823,0.0844,0.075,0.0716,0.0695,0.0622,0.0566,0.0565,0.0473,0.0379,0.0383,0.0437,0.0291,0.0504,0.0503,0.0502,0,0.0324,0.0412,0.0494,0.0519,0.0608,0.066,0.0712,0.078,0.0852,0.093,0.0993,0.0998,0.1016,0.0946,0.0817,0.0775,0.077,0.0696,0.0559,0.0552,0.0518,0.0503,0.0446,0.0691,0.0691,0.0691,0.0691,0,0.0383,0.045,0.0523,0.057,0.0686,0.0724,0.0851,0.0902,0.1003,0.1117,0.1097,0.1184,0.1063,0.1035,0.0902,0.0769,0.0839,0.0605,0.0566,0.054,0.0528,0.0388,0.0303,0.0691,0.0691,0.0691,0.0691,0,0.0427,0.0466,0.0571,0.0672,0.0711,0.0797,0.0937,0.1034,0.111,0.1264,0.1302,0.1334,0.1291,0.1159,0.1042,0.0876,0.0659,0.069,0.0659,0.0615,0.031,0.0231,0.0138,0.0068,0.055,0.0548,0.0547,0,0.0459,0.0515,0.064,0.0707,0.0757,0.0879,0.0974,0.1078,0.119,0.1362,0.1454,0.1462,0.1488,0.1283,0.1003,0.0781,0.0632,0.0578,0.0482,0.0318,0.0202,0.0136,0.008,0.0471,0.0469,0.0467,0.0466,0,0.0527,0.0565,0.0652,0.078,0.0884,0.1014,0.1156,0.1259,0.1405,0.1538,0.1695,0.1734,0.1532,0.1287,0.0947,0.0773,0.0448,0.0532,0.0392,0.0171,0.0072,-0.0023,0.0418,0.0451,0.0453,0.0454,0.0454,0.0455,0.0577,0.0646,0.0748,0.087,0.0988,0.1137,0.125,0.1408,0.1597,0.1795,0.1831,0.1906,0.1549,0.1078,0.0816,0.031,0.0322,0.0139,0.007,0.003,-0.0079,0.0314,0.0271,0.0271,0.0272,0.0272,0.0272,0,0.0645,0.072,0.0833,0.0982,0.1106,0.1162,0.1368,0.1481,0.1693,0.1869,0.1986,0.1866,0.1414,0.0971,0.0292,-0.0075,-0.0189,-0.0255,-0.0331,-0.0357,0.003,-0.0018,-0.0162,-0.0162,-0.0161,-0.0161,-0.0161,-0.0161,0.0688,0.0799,0.0851,0.1047,0.1153,0.1323,0.1437,0.1607,0.1757,0.1942,0.2008,0.2031,0.1725,0.0548,-0.025,-0.0436,-0.0638,-0.0727,-0.0807,-0.0537,-0.0505,-0.0474,-0.0537,-0.0788,-0.0789,-0.116,-0.1164,-0.1167]}],[{"header":{"parameterUnit":"m.s-1","parameterCategory":2,"la1":30.2991,"la2":30.254,"lo1":-89.0895,"lo2":-89.0444,"dy":0.0017,"dx":0.0017,"nx":28,"ny":28,"refTime":"2024-03-29T03:00:00:Z","depth":"2","parameterNumber":2,"parameterNumberName":"U-component_of_CURRENTS"},"data":[0,0,0,0,0,0,0,0,0,0,0,0,0,0,0,0,0,0,0,0,0,0,0,0,0,0,0,0,0,0,0,0,0,0,0,0,0,0,0,0,0,0,0,0,0,0,0,0,0,0,0,0,0,0,0,0,0,0,0.2445,0.2445,0,0.2437,0.2437,0.2437,0.2417,0.2417,0.2417,0.2416,0.2392,0.2391,0.2391,0,0,0,0,0,0,0,0,0,0,0,0,0,0.2456,0.2456,0.2445,0.2446,0.2446,0.2437,0.2437,0.2437,0.2417,0.2417,0.2416,0.2416,0.2392,0.2391,0.2391,0,0,0,0,0,0,0,0,0,0,0,0,0,0.2447,0.2456,0.2445,0.2437,0.2436,0.2437,0.2437,0.2437,0.2417,0.2417,0.2416,0.2416,0.2392,0.2392,0.2391,0.2391,0,0,0.2388,0.2388,0,0,0,0,0,0,0,0,0.2448,0.2447,0.2438,0.2438,0.2437,0.243,0.2432,0.2421,0.2417,0.2421,0.2416,0.2416,0.2405,0.2403,0.2399,0.239,0.2389,0.2388,0.2388,0.2388,0.2387,0,0,0,0,0,0,0,0.2449,0.2447,0.2439,0.2438,0.2438,0.2438,0.2436,0.243,0.2412,0.2421,0.242,0.2424,0.2404,0.2399,0.2398,0.2388,0.2388,0.2388,0.2387,0.2387,0.2426,0.2427,0,0,0,0,0,0,0.2455,0.2447,0.244,0.2439,0.2445,0.2438,0.2436,0.243,0.2412,0.2411,0.2424,0.2423,0.2401,0.2399,0.2397,0.2439,0.2388,0.2387,0.2386,0.2424,0.2426,0.2428,0,0,0,0,0,0,0.2455,0.2454,0.244,0.2446,0.2445,0.2439,0.2432,0.243,0.2434,0.2416,0.2413,0.2431,0.2401,0.2398,0.2404,0.2436,0.2387,0.2386,0.2423,0.2425,0.2427,0.2494,0,0,0,0,0,0,0.2455,0.2454,0.2456,0.2446,0.2445,0.2446,0.2433,0.243,0.2438,0.2436,0.2421,0.2417,0.24,0.2406,0.2403,0.2434,0.2385,0.2421,0.2424,0.2426,0.249,0.2499,0.2506,0,0,0,0,0,0.2455,0.2456,0.2456,0.2456,0.2446,0.2446,0.2446,0.2439,0.2438,0.2441,0.2437,0.2418,0.2422,0.2406,0.2403,0.2434,0.2419,0.2423,0.2426,0.2487,0.2497,0.2506,0,0,0,0,0,0,0.246,0.2454,0.2454,0.2452,0.2454,0.2444,0.2449,0.2448,0.2446,0.2448,0.243,0.2427,0.2447,0.2431,0.2414,0.2455,0.2421,0.2424,0.2468,0.2478,0.2485,0.2506,0.2385,0,0,0,0,0,0.2464,0.2463,0.246,0.2461,0.2464,0.2461,0.2463,0.246,0.2457,0.2457,0.2447,0.2447,0.2458,0.246,0.2458,0.2475,0.2493,0.2496,0.2504,0.251,0.2527,0.2598,0.2615,0.2439,0.2439,0.2439,0,0,0.2464,0.2464,0.2462,0.2463,0.2463,0.2472,0.246,0.2468,0.2482,0.2455,0.2469,0.247,0.2469,0.2491,0.25,0.2482,0.2567,0.2515,0.252,0.2534,0.2604,0.2621,0.2636,0.2441,0.2441,0.244,0,0,0.2467,0.2468,0.247,0.2475,0.2484,0.2487,0.2494,0.2493,0.2499,0.2516,0.251,0.2536,0.2533,0.2548,0.2556,0.2607,0.2607,0.2604,0.266,0.2729,0.2744,0.2758,0.2792,0.2808,0.2608,0.2608,0.2608,0,0.2472,0.2471,0.2472,0.248,0.2492,0.2497,0.2511,0.252,0.2523,0.2546,0.253,0.2577,0.2568,0.2625,0.2642,0.2627,0.2655,0.2622,0.2741,0.2755,0.2768,0.2799,0.2817,0.2611,0.2611,0.2611,0.261,0,0.2472,0.2481,0.2486,0.25,0.2515,0.2526,0.2546,0.2565,0.2581,0.2599,0.2656,0.2658,0.2695,0.2696,0.2683,0.2773,0.2757,0.2743,0.2719,0.279,0.2818,0.2835,0.2617,0.2615,0.2614,0.2613,0,0,0.2452,0.2481,0.2482,0.2496,0.2528,0.2536,0.2581,0.2624,0.2669,0.2689,0.2753,0.2784,0.2805,0.2816,0.2813,0.2864,0.2968,0.2847,0.2849,0.2884,0.3109,0.3013,0.3022,0.2982,0.2986,0.2989,0.3087,0,0.2452,0.2474,0.2493,0.2521,0.2536,0.2572,0.2617,0.2664,0.2709,0.277,0.2813,0.2868,0.2846,0.2876,0.2931,0.2968,0.3018,0.2942,0.3032,0.3034,0.2945,0.3041,0.2791,0.2851,0.3103,0.3106,0.3108,0,0.244,0.2461,0.2489,0.2543,0.2555,0.2579,0.2664,0.2706,0.2805,0.2849,0.2929,0.2962,0.3055,0.3016,0.3141,0.3098,0.3115,0.313,0.3134,0.3037,0.2971,0.2823,0.2872,0.3135,0.3133,0.3131,0.3129,0,0.2414,0.2455,0.2479,0.2493,0.2557,0.2589,0.2634,0.2732,0.2796,0.291,0.2982,0.3081,0.3151,0.3209,0.3242,0.3214,0.3359,0.3322,0.3248,0.324,0.3041,0.3009,0.3411,0.3411,0.3411,0.341,0.341,0,0.2399,0.2413,0.2467,0.2475,0.2535,0.2579,0.2663,0.2731,0.2846,0.2929,0.3026,0.3109,0.321,0.3291,0.3298,0.3332,0.3415,0.3285,0.3277,0.3053,0.3023,0.3274,0.3257,0.3414,0.3413,0.3413,0.3412,0,0.2358,0.239,0.242,0.2487,0.2521,0.2561,0.2683,0.2737,0.286,0.2976,0.3023,0.318,0.3285,0.3348,0.3443,0.3406,0.3435,0.3411,0.3123,0.3079,0.3254,0.3239,0.3368,0.3366,0.3364,0.3362,0.3361,0,0.2336,0.2346,0.2424,0.2453,0.2483,0.2558,0.2614,0.2738,0.2796,0.2997,0.3038,0.32,0.3267,0.3381,0.3348,0.3358,0.3411,0.3116,0.3016,0.328,0.3259,0.3247,0.3235,0.2775,0.2769,0.2764,0.276,0,0.2303,0.2329,0.236,0.2428,0.2477,0.2542,0.262,0.2669,0.2801,0.2893,0.3003,0.3081,0.3198,0.3104,0.3126,0.3089,0.3098,0.3016,0.3405,0.2816,0.2726,0.2703,0.271,0.2716,0.2721,0.2724,0.2726,0.2728,0.2285,0.2307,0.2354,0.24,0.2452,0.2489,0.2489,0.2557,0.2628,0.2703,0.2854,0.2875,0.2916,0.2831,0.2739,0.267,0.2879,0.2744,0.2757,0.2776,0.2682,0.2593,0.2539,0.2543,0.2545,0.2548,0.255,0,0.227,0.2302,0.2329,0.2363,0.2332,0.2413,0.2458,0.2409,0.2401,0.2511,0.2566,0.2396,0.2352,0.2389,0.2219,0.221,0.2171,0.2118,0.2044,0.2091,0.2131,0.2001,0.168,0.1677,0.1674,0.1671,0,0,0.2279,0.2283,0.2281,0.2221,0.2226,0.2177,0.2164,0.2121,0.2147,0.2107,0.2098,0.2286,0.2353,0.1998,0.1942,0.1781,0.192,0.1713,0.242,0.2383,0.2419,0.2511,0.2366,0,0,0,0,0]},{"header":{"parameterUnit":"m.s-1","parameterCategory":2,"la1":30.2991,"la2":30.254,"lo1":-89.0895,"lo2":-89.0444,"dy":0.0017,"dx":0.0017,"nx":28,"ny":28,"refTime":"2024-03-29T03:00:00:Z","depth":"2","parameterNumber":3,"parameterNumberName":"V-component_of_CURRENTS"},"data":[0,0,0,0,0,0,0,0,0,0,0,0,0,0,0,0,0,0,0,0,0,0,0,0,0,0,0,0,0,0,0,0,0,0,0,0,0,0,0,0,0,0,0,0,0,0,0,0,0,0,0,0,0,0,0,0,0,0,0.0144,0.0144,0,0.0127,0.0126,0.0126,0.0114,0.0114,0.0114,0.0114,0.008,0.0079,0.0078,0,0,0,0,0,0,0,0,0,0,0,0,0,0.012,0.0121,0.0144,0.0144,0.0144,0.0127,0.0126,0.0126,0.0114,0.0114,0.0114,0.0114,0.0081,0.008,0.0078,0,0,0,0,0,0,0,0,0,0,0,0,0,0.0118,0.0121,0.0144,0.0137,0.0136,0.0127,0.0126,0.0126,0.0114,0.0114,0.0114,0.0114,0.0081,0.008,0.0078,0.0068,0,0,0.0074,0.0073,0,0,0,0,0,0,0,0,0.0119,0.0119,0.0138,0.0137,0.0137,0.0124,0.0106,0.0106,0.0114,0.0121,0.0114,0.0114,0.0094,0.0092,0.0086,0.0066,0.0065,0.0074,0.0073,0.0072,0.0072,0,0,0,0,0,0,0,0.0119,0.012,0.0136,0.0138,0.0137,0.0119,0.0119,0.0105,0.0106,0.012,0.012,0.012,0.0094,0.0088,0.0086,0.0064,0.0074,0.0073,0.0072,0.0071,0.0047,0.0047,0,0,0,0,0,0,0.0126,0.012,0.0136,0.0135,0.0129,0.012,0.0119,0.0127,0.0106,0.0104,0.012,0.012,0.009,0.0087,0.0084,0.0093,0.0072,0.0071,0.007,0.0046,0.0047,0.0047,0,0,0,0,0,0,0.0126,0.0128,0.0137,0.0128,0.0128,0.012,0.0128,0.0126,0.0125,0.0107,0.0104,0.0121,0.009,0.0086,0.008,0.0091,0.007,0.0069,0.0046,0.0047,0.0047,0.0096,0,0,0,0,0,0,0.0126,0.0128,0.0134,0.0129,0.0129,0.0139,0.0128,0.0126,0.0125,0.0125,0.0106,0.0103,0.009,0.0082,0.0078,0.0088,0.0068,0.0046,0.0046,0.0047,0.0094,0.0098,0.0101,0,0,0,0,0,0.0125,0.0135,0.0134,0.0136,0.0137,0.0139,0.0137,0.0131,0.0125,0.0128,0.0117,0.0104,0.0082,0.0081,0.0077,0.0087,0.0046,0.0046,0.0047,0.0093,0.0097,0.0101,0,0,0,0,0,0,0.0125,0.0135,0.0134,0.0146,0.0145,0.0138,0.0139,0.0134,0.0126,0.0125,0.0107,0.0103,0.0101,0.0085,0.0084,0.008,0.0061,0.0061,0.0098,0.0102,0.0105,0.0131,0.0067,0,0,0,0,0,0.0129,0.0142,0.0143,0.0152,0.0154,0.0146,0.0145,0.0142,0.0136,0.0132,0.0121,0.0107,0.0098,0.0094,0.0081,0.0078,0.0062,0.0081,0.0084,0.0088,0.0104,0.0087,0.0091,0.0048,0.0048,0.0048,0,0,0.013,0.0138,0.0144,0.0153,0.0151,0.0164,0.0146,0.0149,0.0162,0.0129,0.0139,0.0119,0.01,0.0099,0.0097,0.0088,0.0088,0.0088,0.0091,0.0107,0.0088,0.0093,0.0096,0.0049,0.0049,0.0049,0,0,0.0146,0.0148,0.0167,0.0171,0.0176,0.0175,0.0179,0.0175,0.0176,0.018,0.0161,0.0151,0.0136,0.0127,0.012,0.0135,0.0107,0.0125,0.0165,0.0148,0.0152,0.0155,0.0127,0.0128,0.0127,0.0127,0.0127,0,0.0147,0.0176,0.017,0.0189,0.0202,0.0184,0.0209,0.0205,0.02,0.021,0.0191,0.0177,0.0154,0.0162,0.0165,0.0145,0.0126,0.0152,0.0154,0.0157,0.0159,0.013,0.013,0.013,0.0129,0.0129,0.0129,0,0.018,0.0202,0.0212,0.0238,0.0247,0.0263,0.0264,0.0269,0.0265,0.0265,0.027,0.0236,0.0235,0.0216,0.0195,0.0202,0.0178,0.0161,0.0147,0.0167,0.0134,0.0133,0.0133,0.0132,0.0132,0.0131,0,0,0.019,0.023,0.0235,0.0266,0.0278,0.0297,0.0314,0.0337,0.0365,0.0341,0.0373,0.0339,0.0322,0.0313,0.0278,0.0256,0.0243,0.022,0.0217,0.0199,0.0198,0.0158,0.0152,0.0224,0.0225,0.0225,0.0164,0,0.0221,0.028,0.0287,0.0344,0.0378,0.0375,0.0404,0.0418,0.042,0.0441,0.0403,0.0417,0.0358,0.0362,0.033,0.0275,0.0244,0.0261,0.0176,0.0174,0.0142,0.0152,0.0178,0.0124,0.0163,0.0163,0.0162,0,0.0257,0.0297,0.0361,0.0425,0.044,0.0466,0.0521,0.0546,0.0559,0.0561,0.0555,0.0526,0.0501,0.0444,0.0359,0.0373,0.0294,0.0235,0.0231,0.0182,0.0133,0.0112,0.012,0.016,0.016,0.0161,0.0161,0,0.0291,0.0353,0.0413,0.0432,0.0491,0.0522,0.0556,0.0585,0.0635,0.0644,0.0676,0.0625,0.0623,0.0521,0.0393,0.0383,0.0286,0.0257,0.0142,0.0137,0.0138,0.0133,0.0191,0.0191,0.0191,0.0191,0.0192,0,0.0334,0.0383,0.0437,0.0471,0.0561,0.0578,0.0667,0.069,0.0738,0.0812,0.075,0.0783,0.0644,0.0568,0.0431,0.0285,0.0313,0.0157,0.0125,0.0153,0.015,0.0168,0.0166,0.0189,0.019,0.019,0.019,0,0.0371,0.0399,0.0478,0.0549,0.0583,0.065,0.0759,0.0824,0.0852,0.0944,0.0958,0.0917,0.0819,0.0652,0.0487,0.0352,0.0201,0.0134,0.0168,0.0141,0.0053,0.0054,0.0018,0.0016,0.0014,0.0013,0.0012,0,0.0397,0.044,0.0542,0.0605,0.0643,0.0743,0.0822,0.0883,0.0958,0.1029,0.108,0.1014,0.0976,0.0707,0.0459,0.0212,0.0178,0.0064,0.0048,0.0066,0.0038,0.0042,0.0045,0.0061,0.0061,0.006,0.006,0,0.0454,0.0486,0.0558,0.0684,0.0776,0.0893,0.1003,0.1079,0.1157,0.1218,0.1274,0.1245,0.1003,0.0762,0.0418,0.025,0.0106,0.0046,0.0071,0.0098,0.0101,0.0076,0.0079,0.0056,0.0056,0.0056,0.0057,0.0057,0.0504,0.0567,0.0663,0.0785,0.0897,0.1034,0.1123,0.1226,0.1348,0.1434,0.1403,0.1356,0.1093,0.0658,0.0364,0.0062,0.0081,-0.0026,-0.0022,-0.0018,-0.0005,-0.0005,-0.0068,-0.0069,-0.0069,-0.0069,-0.0069,0,0.0579,0.0654,0.0762,0.0909,0.1025,0.1078,0.1242,0.1316,0.1439,0.1504,0.1526,0.1269,0.1004,0.0693,0.0249,-0.0017,-0.0026,-0.0108,-0.0052,-0.0046,-0.0041,-0.0028,-0.0099,-0.0099,-0.01,-0.0101,0,0,0.0628,0.0742,0.0795,0.0993,0.1091,0.1243,0.1331,0.1431,0.1501,0.154,0.1511,0.1462,0.1097,0.077,0.0411,0.0156,0.0114,0.0101,0.0155,0.027,0.0278,0.0036,0.0067,0,0,0,0,0]}],[{"header":{"parameterUnit":"m.s-1","parameterCategory":2,"la1":30.2991,"la2":30.254,"lo1":-89.0895,"lo2":-89.0444,"dy":0.0017,"dx":0.0017,"nx":28,"ny":28,"refTime":"2024-03-29T03:00:00:Z","depth":"4","parameterNumber":2,"parameterNumberName":"U-component_of_CURRENTS"},"data":[0,0,0,0,0,0,0,0,0,0,0,0,0,0,0,0,0,0,0,0,0,0,0,0,0,0,0,0,0,0,0,0,0,0,0,0,0,0,0,0,0,0,0,0,0,0,0,0,0,0,0,0,0,0,0,0,0,0,0.1613,0.1614,0,0.1661,0.1661,0.1662,0.1704,0.1704,0.1705,0.1706,0.1759,0.1759,0.176,0,0,0,0,0,0,0,0,0,0,0,0,0,0.156,0.1561,0.1613,0.1614,0.1614,0.1661,0.1661,0.1662,0.1704,0.1704,0.1705,0.1706,0.1758,0.1759,0.176,0,0,0,0,0,0,0,0,0,0,0,0,0,0.1591,0.1561,0.1613,0.1643,0.1646,0.1661,0.1661,0.1662,0.1703,0.1704,0.1705,0.1706,0.1758,0.1759,0.176,0.1747,0,0,0.1764,0.1764,0,0,0,0,0,0,0,0,0.1589,0.1593,0.1637,0.1641,0.1644,0.1679,0.1662,0.1691,0.1703,0.1679,0.1706,0.1707,0.1733,0.1736,0.174,0.175,0.1752,0.1764,0.1765,0.1765,0.1766,0,0,0,0,0,0,0,0.1587,0.1591,0.163,0.1638,0.1642,0.1654,0.166,0.1668,0.1698,0.1681,0.1685,0.1693,0.1735,0.1739,0.1742,0.1753,0.1764,0.1765,0.1766,0.1766,0.1846,0.1848,0,0,0,0,0,0,0.1584,0.1589,0.1628,0.1631,0.1621,0.1655,0.166,0.1665,0.1698,0.1705,0.1693,0.1695,0.1736,0.174,0.1744,0.1815,0.1765,0.1766,0.1767,0.1845,0.1847,0.1848,0,0,0,0,0,0,0.1583,0.1587,0.1626,0.1613,0.1619,0.1655,0.166,0.1666,0.1705,0.1707,0.1714,0.173,0.1737,0.1742,0.1782,0.1815,0.1767,0.1768,0.1843,0.1846,0.1848,0.1904,0,0,0,0,0,0,0.1581,0.1586,0.1606,0.1613,0.162,0.1655,0.1659,0.1666,0.1707,0.1712,0.174,0.1744,0.1739,0.178,0.1783,0.1815,0.1769,0.1842,0.1844,0.1847,0.19,0.1908,0.1914,0,0,0,0,0,0.1579,0.1594,0.1606,0.1613,0.164,0.1656,0.1661,0.1688,0.1708,0.1727,0.1751,0.1745,0.1799,0.1782,0.1785,0.1819,0.184,0.1844,0.1847,0.1897,0.1906,0.1914,0,0,0,0,0,0,0.1583,0.16,0.1614,0.1636,0.1656,0.1664,0.1691,0.1707,0.1741,0.1758,0.1761,0.1766,0.1813,0.1808,0.179,0.185,0.182,0.1824,0.1857,0.1866,0.1873,0.1871,0.177,0,0,0,0,0,0.1593,0.1612,0.1626,0.1649,0.1662,0.1684,0.1703,0.172,0.1742,0.176,0.1779,0.1802,0.1822,0.184,0.1852,0.1884,0.1885,0.1909,0.1916,0.1922,0.1923,0.1961,0.1972,0.1859,0.1859,0.1859,0,0,0.1601,0.1615,0.1628,0.1653,0.1674,0.1693,0.1699,0.1735,0.176,0.1759,0.1812,0.1828,0.1836,0.1874,0.1894,0.1879,0.1954,0.1926,0.1931,0.1929,0.1966,0.1976,0.1986,0.1861,0.1861,0.186,0,0,0.1616,0.1643,0.1661,0.1679,0.1715,0.1726,0.1744,0.1772,0.1799,0.1843,0.1851,0.1888,0.1922,0.193,0.1939,0.1991,0.199,0.2005,0.2041,0.2078,0.2088,0.2096,0.211,0.212,0.2009,0.201,0.201,0,0.1632,0.1651,0.167,0.1691,0.1714,0.1744,0.1768,0.1793,0.1834,0.186,0.1872,0.1939,0.1945,0.1986,0.2006,0.2007,0.2025,0.2008,0.2088,0.2096,0.2103,0.2116,0.2125,0.2013,0.2012,0.2012,0.2012,0,0.1644,0.1676,0.1691,0.1725,0.1752,0.1781,0.1812,0.1851,0.1893,0.1916,0.1983,0.2001,0.2042,0.2051,0.2046,0.2106,0.21,0.2092,0.2065,0.2118,0.2128,0.2137,0.2017,0.2016,0.2015,0.2014,0,0,0.1635,0.169,0.17,0.1723,0.1777,0.1792,0.1847,0.1894,0.1937,0.1988,0.2047,0.2085,0.2111,0.2122,0.2129,0.2158,0.2222,0.2156,0.2156,0.2167,0.2304,0.2162,0.2157,0.2241,0.2243,0.2245,0.2289,0,0.1645,0.1686,0.1715,0.1762,0.1785,0.1833,0.1877,0.1927,0.1982,0.2044,0.2084,0.2143,0.2134,0.2173,0.2202,0.2225,0.2249,0.2211,0.2253,0.2253,0.2119,0.2164,0.2251,0.2295,0.2297,0.2298,0.2299,0,0.1641,0.1672,0.1721,0.1782,0.1798,0.1835,0.1917,0.1962,0.2048,0.2096,0.2167,0.2205,0.2269,0.2253,0.232,0.2305,0.2311,0.2315,0.2317,0.2168,0.2127,0.2232,0.2315,0.2313,0.2312,0.2311,0.231,0,0.1607,0.1673,0.1715,0.1736,0.1808,0.1851,0.1902,0.1987,0.2038,0.2147,0.2205,0.2277,0.2339,0.2367,0.2388,0.2373,0.2446,0.2423,0.2293,0.2283,0.2373,0.2363,0.2461,0.2461,0.246,0.246,0.246,0,0.1585,0.162,0.1708,0.1725,0.178,0.1846,0.1921,0.1981,0.2085,0.2146,0.224,0.2296,0.2379,0.2428,0.2422,0.2384,0.248,0.23,0.2287,0.2395,0.2388,0.2379,0.2369,0.2462,0.2462,0.2461,0.2461,0,0.1527,0.1592,0.1636,0.1727,0.1763,0.1805,0.1925,0.1964,0.2089,0.2179,0.2225,0.2344,0.2407,0.2453,0.25,0.2419,0.2399,0.2358,0.2472,0.2465,0.2199,0.2192,0.221,0.2205,0.2202,0.2198,0.2196,0,0.1494,0.1515,0.1621,0.1646,0.1692,0.1775,0.1819,0.195,0.2,0.2182,0.2206,0.233,0.2389,0.2339,0.2397,0.2373,0.2339,0.2305,0.2238,0.2189,0.2176,0.2174,0.2172,0.2189,0.2188,0.2187,0.2186,0,0.1417,0.1472,0.1505,0.1569,0.1622,0.1676,0.1764,0.1796,0.1948,0.2082,0.2139,0.2169,0.2233,0.2251,0.2254,0.223,0.2313,0.2263,0.227,0.2207,0.2164,0.2154,0.2157,0.2173,0.2175,0.2176,0.2177,0,0.1357,0.1362,0.1419,0.146,0.1523,0.1549,0.1618,0.1679,0.1756,0.196,0.1975,0.21,0.2221,0.2178,0.218,0.2149,0.2104,0.2011,0.203,0.2046,0.1968,0.1888,0.1802,0,0,0,0,0,0.1284,0.1275,0.13,0.1339,0.1397,0.1444,0.1554,0.163,0.1795,0.1783,0.1878,0.1927,0.1948,0.2008,0.1939,0.2091,0.2103,0.1999,0.2005,0.2098,0.2113,0.2035,0,0,0,0,0,0,0.123,0.125,0.1256,0.1228,0.1237,0.1294,0.1364,0.1479,0.1489,0.1661,0.1682,0.1802,0.1849,0.1967,0.1902,0.1916,0.1875,0.2077,0.2071,0.2089,0.2103,0.2116,0.204,0,0,0,0,0]},{"header":{"parameterUnit":"m.s-1","parameterCategory":2,"la1":30.2991,"la2":30.254,"lo1":-89.0895,"lo2":-89.0444,"dy":0.0017,"dx":0.0017,"nx":28,"ny":28,"refTime":"2024-03-29T03:00:00:Z","depth":"4","parameterNumber":3,"parameterNumberName":"V-component_of_CURRENTS"},"data":[0,0,0,0,0,0,0,0,0,0,0,0,0,0,0,0,0,0,0,0,0,0,0,0,0,0,0,0,0,0,0,0,0,0,0,0,0,0,0,0,0,0,0,0,0,0,0,0,0,0,0,0,0,0,0,0,0,0,0.0106,0.0106,0,0.0092,0.0092,0.0091,0.0091,0.0092,0.0092,0.0092,0.0068,0.0067,0.0067,0,0,0,0,0,0,0,0,0,0,0,0,0,0.0096,0.0096,0.0106,0.0106,0.0106,0.0092,0.0092,0.0091,0.0091,0.0092,0.0092,0.0092,0.0069,0.0068,0.0066,0,0,0,0,0,0,0,0,0,0,0,0,0,0.0092,0.0097,0.0106,0.0105,0.0105,0.0092,0.0092,0.0091,0.0091,0.0092,0.0092,0.0092,0.0069,0.0068,0.0066,0.005,0,0,0.0062,0.0062,0,0,0,0,0,0,0,0,0.0093,0.0093,0.0105,0.0105,0.0105,0.0095,0.0079,0.0077,0.0091,0.0095,0.0092,0.0092,0.0076,0.0075,0.007,0.0049,0.0048,0.0062,0.0061,0.0061,0.006,0,0,0,0,0,0,0,0.0093,0.0093,0.01,0.0105,0.0105,0.0092,0.0092,0.0079,0.0083,0.0095,0.0095,0.0095,0.0076,0.0071,0.0069,0.0048,0.0062,0.0061,0.006,0.006,0.0025,0.0025,0,0,0,0,0,0,0.0098,0.0093,0.01,0.0099,0.0101,0.0092,0.0092,0.0097,0.0083,0.0082,0.0095,0.0095,0.0073,0.0071,0.0068,0.0066,0.0061,0.006,0.0059,0.0026,0.0025,0.0025,0,0,0,0,0,0,0.0098,0.0099,0.0101,0.0096,0.0096,0.0092,0.0097,0.0096,0.0097,0.0083,0.0082,0.0097,0.0073,0.007,0.0063,0.0064,0.0059,0.0058,0.0026,0.0026,0.0025,0.0049,0,0,0,0,0,0,0.0098,0.0099,0.0103,0.0097,0.0096,0.0098,0.0097,0.0096,0.0096,0.0096,0.0084,0.0082,0.0073,0.0065,0.0062,0.0062,0.0057,0.0026,0.0026,0.0025,0.0049,0.005,0.0051,0,0,0,0,0,0.0097,0.0101,0.0103,0.0104,0.0102,0.0099,0.0097,0.0095,0.0096,0.0096,0.009,0.0083,0.0061,0.0064,0.006,0.006,0.0026,0.0026,0.0025,0.0048,0.005,0.0051,0,0,0,0,0,0,0.0095,0.0101,0.0104,0.0108,0.0107,0.0099,0.0099,0.0097,0.0092,0.0093,0.0081,0.0079,0.0073,0.0061,0.0065,0.0049,0.0042,0.0041,0.0061,0.0062,0.0063,0.0074,0.0056,0,0,0,0,0,0.0098,0.0105,0.0105,0.0109,0.0109,0.0105,0.0103,0.0102,0.0097,0.0095,0.0088,0.0077,0.0067,0.0061,0.0051,0.0041,0.0021,0.0038,0.0039,0.004,0.0046,0.0015,0.0014,0.0024,0.0024,0.0024,0,0,0.0097,0.0102,0.0106,0.0109,0.0108,0.0113,0.0105,0.0105,0.011,0.0093,0.0096,0.0081,0.0065,0.0058,0.0054,0.005,0.0025,0.004,0.0041,0.0046,0.0015,0.0014,0.0013,0.0024,0.0024,0.0024,0,0,0.0103,0.0106,0.0115,0.0117,0.012,0.0118,0.012,0.0116,0.0116,0.0116,0.0104,0.0091,0.0079,0.0065,0.0057,0.0056,0.0034,0.0052,0.0067,0.0037,0.0036,0.0035,0.0002,-0.0002,0.0052,0.0052,0.0052,0,0.0102,0.0118,0.0115,0.0125,0.0133,0.0123,0.0136,0.0131,0.0125,0.0127,0.0122,0.0099,0.0083,0.0071,0.0071,0.006,0.0039,0.0064,0.0039,0.0037,0.0036,0.0003,-0.0002,0.0053,0.0053,0.0053,0.0053,0,0.0116,0.013,0.0134,0.015,0.0154,0.0161,0.016,0.0161,0.016,0.0155,0.0146,0.0121,0.0111,0.0096,0.0085,0.0066,0.0053,0.0045,0.0037,0.0036,0.0001,-0.0004,0.0055,0.0054,0.0054,0.0054,0,0,0.0117,0.0141,0.0145,0.0166,0.0171,0.0181,0.0186,0.0192,0.0204,0.0184,0.0193,0.016,0.0147,0.0136,0.0112,0.0081,0.0046,0.0062,0.0059,0.0033,-0.0023,-0.0018,-0.0024,0.0034,0.0033,0.0033,-0.0045,0,0.0132,0.0166,0.017,0.0204,0.0225,0.0222,0.0234,0.0236,0.0231,0.0235,0.0198,0.0199,0.0161,0.0162,0.0122,0.0071,0.0034,0.0068,-0.0021,-0.0024,-0.0016,-0.0029,0.003,-0.005,-0.0051,-0.0052,-0.0052,0,0.0149,0.0175,0.0213,0.0253,0.0261,0.0277,0.0304,0.0316,0.0306,0.0302,0.0282,0.0256,0.0214,0.0186,0.0086,0.011,0.0048,-0.0001,-0.0006,-0.0011,-0.0029,-0.0048,-0.0063,-0.0062,-0.0061,-0.006,-0.006,0,0.017,0.0207,0.0246,0.0258,0.0293,0.0312,0.0334,0.0338,0.0367,0.0352,0.0365,0.03,0.0287,0.0193,0.0089,0.009,-0.0026,-0.0037,-0.0097,-0.0098,-0.009,-0.0088,-0.0111,-0.0111,-0.0111,-0.0111,-0.0111,0,0.0192,0.0224,0.0263,0.0286,0.0346,0.0354,0.041,0.0416,0.0435,0.0475,0.0412,0.0417,0.029,0.0211,0.0102,-0.0014,-0.0019,-0.0096,-0.0117,-0.0079,-0.0075,-0.0094,-0.0091,-0.0114,-0.0113,-0.0113,-0.0112,0,0.0214,0.0234,0.0288,0.0336,0.0361,0.0409,0.0484,0.0519,0.0525,0.0574,0.0578,0.051,0.0407,0.0265,0.0111,0.0021,-0.0103,-0.0145,-0.0098,-0.0114,-0.0161,-0.0156,-0.0216,-0.0216,-0.0217,-0.0217,-0.0217,0,0.0228,0.0257,0.0335,0.0382,0.041,0.0483,0.0536,0.0569,0.061,0.0632,0.0655,0.0576,0.0511,0.0295,0.0134,-0.0081,-0.011,-0.0182,-0.0172,-0.0157,-0.0171,-0.0166,-0.016,-0.0218,-0.0218,-0.0218,-0.0218,0,0.0262,0.0289,0.0341,0.0434,0.0502,0.0583,0.0657,0.0696,0.0736,0.0741,0.073,0.0622,0.0503,0.0316,0.0146,-0.0009,-0.014,-0.0186,-0.0186,-0.0178,-0.016,-0.0173,-0.0167,-0.0219,-0.0219,-0.0219,-0.0219,0,0.0295,0.0338,0.0405,0.0491,0.0577,0.0657,0.0695,0.0745,0.0788,0.0803,0.0795,0.0663,0.0583,0.0354,0.0196,0.0043,0.0007,-0.0046,-0.0054,-0.0055,0.0012,0.0059,0.005,0,0,0,0,0,0.0328,0.038,0.0456,0.055,0.0631,0.0684,0.0765,0.079,0.0825,0.0832,0.082,0.0711,0.0494,0.039,0.0242,0.0175,-0.0033,-0.0007,-0.0102,-0.0227,-0.0225,-0.0174,0,0,0,0,0,0,0.0354,0.0429,0.0462,0.0579,0.0647,0.0742,0.0796,0.082,0.0821,0.0829,0.0714,0.0669,0.0449,0.0582,0.0238,0.0191,0.0109,-0.0108,-0.0112,-0.0227,-0.0226,-0.0225,-0.0172,0,0,0,0,0]}]]